Location: Unspecified
(0.0000°N, 0.0000°E)
Time: 17:18:56
(UTC+02:00)

Cosmos 1300 - Visible Passes

Search period start: 04 July 2015 00:00
Search period end: 14 July 2015 00:00
Orbit: 521 x 523 km, 82.5° (Epoch: 04 July)

Date Brightness Start Highest point End Pass type
(mag) Time Alt. Az. Time Alt. Az. Time Alt. Az.
09 Jul 5.5 22:05:02 10° N 22:05:05 10° N 22:05:05 10° N visible
10 Jul 5.1 21:52:05 10° NNE 21:52:45 14° NNE 21:52:45 14° NNE visible
11 Jul 4.6 21:39:10 10° NNE 21:40:27 19° NNE 21:40:27 19° NNE visible
12 Jul 4.2 21:26:17 10° NNE 21:28:13 23° NE 21:28:13 23° NE visible
13 Jul 3.9 21:13:26 10° NNE 21:16:02 24° ENE 21:16:02 24° ENE visible
